Philip, SD

11:27 AM MST on November 20, 2017 (GMT -0700)
Philip

Weather History for KPHP - April, 2014

Change the Weather History Date:

Tuesday, April 8, 2014

  Actual Average Record
Temperature  
Mean Temperature 46 °F 44 °F  
Max Temperature 69 °F 57 °F 86 °F (1988)
Min Temperature 23 °F 30 °F 8 °F (2007)
Degree Days  
Heating Degree Days 19 21  
Month to date heating degree days 225 182  
Since 1 July heating degree days 6818 6485  
Cooling Degree Days 0 0  
Month to date cooling degree days 0 0  
Year to date cooling degree days 0 0  
Moisture  
Dew Point 28 °F    
Average Humidity 56    
Maximum Humidity 88    
Minimum Humidity 24    
Precipitation  
Precipitation 0.00 in 0.04 in 0.32 in (1991)
Month to date precipitation 0.42 0.29  
Year to date precipitation 1.44 2.34  
Sea Level Pressure  
Sea Level Pressure 30.03 in    
Wind  
Wind Speed 5 mph (WSW)    
Max Wind Speed 14 mph    
Max Gust Speed 20 mph    
Visibility 10 miles    
Events      
T = Trace of Precipitation, MM = Missing Value Source: NWS Daily Summary

Daily Weather History Graph

Daily Weather History Graph

Search for Another Location

Airport or City:

Trip Planner

Search our weather history database for the weather conditions in past years. The results will help you decide how hot, cold, wet, or windy it might be!

Date:

Astronomy

Apr. 08, 2014 Rise Set
Actual Time 6:15 AM MDT 7:22 PM MDT
Civil Twilight 5:45 AM MDT 7:51 PM MDT
Nautical Twilight 5:10 AM MDT 8:27 PM MDT
Astronomical Twilight 4:32 AM MDT 9:04 PM MDT
Moon 1:05 PM MDT (4/8) 2:41 AM MDT (4/8)
Length of Visible Light 14h 06m
Length of Day
13h 06m
Waxing Gibbous, 63% of the Moon is Illuminated
Apr 8
Waxing Gibbous
Apr 15
Full
Apr 22
Last Quarter
Apr 29
New
May 6
First Quarter

Hourly Weather History & Observations

Time (MDT) Temp. Windchill Dew Point Humidity Pressure Visibility Wind Dir Wind Speed Gust Speed Precip Events Conditions
12:55 AM 32.0 °F 26.4 °F 26.1 °F 79% 30.12 in 10.0 mi West 5.8 mph - N/A   Clear
1:55 AM 30.0 °F 25.2 °F 25.0 °F 82% 30.11 in 10.0 mi West 4.6 mph - N/A   Clear
2:55 AM 28.9 °F 22.8 °F 24.1 °F 82% 30.12 in 10.0 mi WNW 5.8 mph - N/A   Clear
3:55 AM 27.0 °F 21.6 °F 23.0 °F 85% 30.13 in 10.0 mi West 4.6 mph - N/A   Clear
4:55 AM 25.0 °F 18.1 °F 21.9 °F 88% 30.14 in 10.0 mi West 5.8 mph - N/A   Clear
5:55 AM 24.1 °F - 19.9 °F 84% 30.14 in 10.0 mi Calm Calm - N/A   Clear
6:55 AM 25.0 °F - 21.0 °F 85% 30.15 in 10.0 mi Calm Calm - N/A   Clear
7:55 AM 30.9 °F 27.5 °F 25.0 °F 79% 30.16 in 10.0 mi WSW 3.5 mph - N/A   Clear
8:55 AM 41.0 °F - 30.0 °F 65% 30.15 in 10.0 mi Calm Calm - N/A   Clear
9:55 AM 50.0 °F - 28.9 °F 44% 30.12 in 10.0 mi SSE 6.9 mph - N/A   Clear
10:55 AM 53.1 °F - 28.0 °F 38% 30.11 in 10.0 mi South 5.8 mph - N/A   Clear
11:55 AM 57.0 °F - 28.9 °F 34% 30.09 in 10.0 mi SSW 8.1 mph - N/A   Clear
12:55 PM 60.1 °F - 28.9 °F 31% 30.06 in 10.0 mi SW 9.2 mph - N/A   Clear
1:55 PM 64.0 °F - 30.0 °F 28% 30.03 in 10.0 mi SW 8.1 mph - N/A   Clear
2:55 PM 66.9 °F - 28.9 °F 24% 29.99 in 10.0 mi West 9.2 mph - N/A   Clear
3:55 PM 68.0 °F - 30.0 °F 24% 29.95 in 10.0 mi WSW 5.8 mph - N/A   Clear
4:55 PM 68.0 °F - 30.0 °F 24% 29.94 in 10.0 mi Variable 4.6 mph - N/A   Clear
5:55 PM 66.9 °F - 32.0 °F 27% 29.92 in 10.0 mi SW 13.8 mph - N/A   Clear
6:55 PM 62.1 °F - 32.0 °F 32% 29.91 in 10.0 mi SW 8.1 mph - N/A   Clear
7:55 PM 55.9 °F - 32.0 °F 40% 29.90 in 10.0 mi WSW 3.5 mph - N/A   Clear
8:55 PM 55.0 °F - 30.9 °F 40% 29.88 in 10.0 mi Calm Calm - N/A   Clear
9:55 PM 57.0 °F - 30.9 °F 37% 29.85 in 10.0 mi WSW 4.6 mph - N/A   Clear
10:55 PM 53.1 °F - 32.0 °F 45% 29.84 in 10.0 mi West 5.8 mph - N/A   Clear
11:55 PM 48.0 °F - 32.0 °F 54% 29.83 in 10.0 mi NW 4.6 mph - N/A   Clear